SCP
0 0 0 0 0 0 0 0 0 0 0 0 0 0 0 0 0 0 0 0 0 0 0 0 0 0 0 0 0 0 0 0 0 0 0 0 0 0 0 0 0 0 0 0
0 0 0 0 0 0 0 0 0 0 0 0 0 0 0 0 0 0 0 0 0 0 0 0 0 0 0 0 0 0 0 0 0 0 0 0 0 0 0 0 0 0 0 0
0 0 0 0 0 0 0 0 0 0 0 0 0 0 0 0 0 0 0 0 0 0 0 0 0 0 0 0 0 0 0 0 0 0 -0 0 0 0 0 0 0 0 0 0
0 0 0 0 0 0 0 0 0 0 0 0 0 0 0 0 0 0 0 0 0 0 0 0 0 0 0 0 0 0 0 0 0 0 -0 0 0 0 0 0 0 0 0 0
0 0 0 0 0 0 0 0 0 0 0 0 0 0 0 0 0 0 0 0 0 0 0 0 0 0 0 0 0 0 0 0 -0 -0 0 0 0 0 -0 -0 0 -0 -0 -0
0 0 0 0 0 0 0 0 0 0 0 0 0 0 0 0 0 0 0 0 0 0 0 0 0 0 0 0 0 0 0 0 0 0 0 -0 0 -0 -0 0 0 0 0 0
0 0 0 0 0 0 0 0 0 0 0 0 0 0 0 0 0 0 0 0 0 0 0 0 0 0 0 0 0 0 0 0 -0 0 0 0 0 -0 -0 0 0 0 0 0
0 0 0 0 0 0 0 0 0 0 0 0 0 0 0 0 0 0 0 0 0 0 0 0 -0 0 0 0 0 0 0 0 0 0 0 -0 0 0 0 0 -0 0 -0 0
-0 0 0 0 0 0 0 0 0 0 0 0 0 0 0 0 0 0 0 0 0 0 0 0 0 -0 -0 0 0 0 0 0 0 0 0 0 -0 0 -0 -0 -0 0 0 0
-0 0 0 0 0 0 0 0 0 0 0 0 0 0 0 0 0 0 0 0 0 0 0 0 0 -0 0 0 0 0 0 0 0 0 0 0 0 0 -0 -0 -0 0 -0 -0
0 0 0 0 0 0 0 0 0 0 0 0 0 0 0 0 0 0 0 0 0 0 0 0 0 0 -0 0 0 0 0 0 0 0 0 0 0 0 0 0 0 0 -0 -0
0 0 0 0 0 0 0 0 0 0 0 0 0 0 0 0 0 0 0 0 0 0 0 0 0 0 0 0 0 0 0 0 0 0 0 0 0 0 0 0 0 0 -0 -0
0 0 0 0 0 0 0 0 0 0 0 0 0 0 0 0 0 0 0 0 0 0 0 0 0 0 0 0 0 0 0 0 0 0 0 0 0 0 0 0 0 0 0 -0
0 0 0 0 0 0 0 0 0 0 0 0 0 0 0 0 0 0 0 0 0 0 0 0 0 0 0 0 0 0 0 0 0 0 0 0 0 0 0 0 0 0 0 -0
0 0 0 -0 0 0 0 0 0 0 0 0 0 0 0 0 0 0 0 0 0 0 0 0 0 0 0 0 0 0 0 0 0 0 0 0 0 0 -0 -0 -0 -0 0 0
0 0 0 0 0 0 0 0 0 0 0 0 0 0 0 0 0 0 0 0 0 0 0 0 0 0 0 -0 -0 0 0 0 0 0 0 0 0 0 0 0 0 0 0 0
0 0 0 0 0 0 0 0 0 0 0 0 0 0 0 0 0 0 0 0 0 0 0 0 0 0 0 -0 -0 0 -0 -0 0 0 0 0 0 0 0 0 0 0 -0 0
0 0 0 0 0 0 0 0 0 0 0 0 0 0 0 0 0 0 0 0 0 0 0 0 0 0 0 -0 0 -0 0 0 0 0 0 0 -0 0 0 0 0 0 0 0
0 0 0 0 0 0 0 0 0 0 0 0 0 0 0 0 0 0 0 0 0 0 0 0 0 0 0 0 0 0 0 0 -0 0 0 0 -0 -0 0 0 0 0 0 0
0 0 0 0 0 0 0 0 0 0 0 0 0 0 0 0 0 0 0 0 0 0 0 0 0 -0 0 0 0 0 0 0 0 0 0 -0 -0 -0 -0 -0 -0 0 0 0
0 0 0 0 0 0 0 0 0 0 0 0 0 0 0 0 0 0 0 0 0 0 0 0 -0 -0 0 0 0 0 0 -0 -0 -0 -0 -0 -0 -0 -0 0 0 0 0 0
0 0 0 0 0 0 0 0 0 0 0 0 0 0 0 0 0 0 0 0 0 0 0 0 -0 0 0 0 0 0 0 0 0 -0 0 -0 -0 -0 -0 -0 0 0 0 -0
0 0 0 0 0 0 0 0 0 0 0 0 0 0 0 0 0 0 0 0 0 0 0 0 0 0 0 0 -0 0 -0 0 0 0 0 0 -0 -0 -0 0 0 0 0 0
0 0 0 0 0 0 0 0 0 0 0 0 0 0 0 0 0 0 0 0 0 0 0 0 0 0 0 -0 -0 -0 -0 0 0 0 0 -0 -0 -0 -0 -0 -0 0 0 0
0 0 0 0 0 0 0 0 0 0 0 0 0 0 0 0 0 0 0 0 0 0 0 0 0 -0 -0 -0 -0 -0 -0 -0 0 0 0 0 -0 -0 -0 -0 -0 -0 0 0
0 0 0 0 0 0 0 0 0 0 0 0 0 0 0 0 0 0 0 0 0 0 0 -0 -0 -0 -0 -0 -0 -0 -0 -0 -0 -0 0 -0 -0 -0 0 -0 -0 0 0 0
0 0 0 0 0 0 0 0 0 0 0 0 0 0 0 0 0 0 0 0 0 -0 -0 -0 -0 -0 -0 -0 -0 -0 -0 -0 -0 -0 -0 -0 -0 0 0 0 0 0 0 0
Wind_Speed_500mb
14 16 18 14 12 6 11 6 2 4 12 5 1 3 4 4 6 3 2 2 2 2 4 6 6 4 1 19 13 7 2 4 7 8 6 5 2 11 9 8 10 6 6 15
17 14 12 14 7 12 11 6 4 3 10 4 5 3 3 3 4 4 7 5 7 1 4 6 4 3 6 3 3 4 1 4 7 2 3 5 2 7 6 8 6 11 9 13
13 14 7 7 6 23 17 7 2 6 5 4 2 6 4 4 4 1 4 2 1 2 4 7 6 3 2 6 4 7 1 4 8 9 8 8 4 6 9 10 7 6 14 17
13 15 5 5 6 22 21 13 6 6 4 6 7 4 2 2 4 6 7 5 7 6 5 4 6 6 5 3 4 4 1 6 4 12 15 9 12 12 17 19 13 12 9 10
16 15 9 10 8 18 28 10 6 5 6 3 7 5 6 4 3 7 5 6 5 11 9 8 6 2 6 1 6 4 2 4 4 11 2 6 11 17 20 21 6 22 29 43
19 14 12 12 10 21 14 14 12 6 11 7 5 6 7 10 2 7 4 7 2 8 9 10 17 16 12 9 2 3 2 3 5 11 4 6 14 16 23 10 8 14 11 20
20 13 10 14 13 13 9 14 12 10 7 6 8 4 5 3 3 3 4 3 5 3 13 20 13 12 11 5 8 10 3 3 2 8 12 5 11 5 9 12 13 30 16 11
12 12 7 8 17 12 12 13 9 5 1 2 8 9 5 1 9 4 3 2 5 13 8 5 5 4 8 5 3 3 2 4 6 2 4 17 3 7 13 14 13 21 30 14
8 6 4 1 13 17 12 14 12 7 8 9 7 4 7 4 3 4 3 5 8 4 2 2 3 2 5 4 3 2 5 2 3 1 1 9 12 8 14 7 8 6 21 13
20 10 3 1 2 10 23 18 16 10 5 3 4 2 4 8 3 1 4 2 4 2 1 3 1 6 3 2 4 6 4 3 8 4 6 17 13 8 15 10 12 6 18 26
35 22 14 4 1 1 10 30 20 17 11 11 10 6 5 4 6 4 5 2 0 3 2 2 4 2 4 2 5 8 11 10 6 4 2 15 14 10 9 10 8 16 14 29
25 43 21 15 6 2 3 7 15 16 15 10 9 12 12 16 16 10 10 4 5 10 2 2 2 4 2 5 6 5 6 10 6 17 13 13 24 29 25 24 28 20 20 16
26 21 32 29 17 10 5 4 2 8 10 23 31 28 27 41 38 31 12 7 8 10 10 2 3 6 5 5 10 5 8 16 8 3 12 27 54 54 65 71 72 59 47 40
28 30 31 33 24 18 14 7 4 9 5 2 3 2 5 6 11 21 35 38 19 11 7 7 4 4 13 6 8 8 12 21 10 14 36 52 60 46 29 27 27 30 41 41
32 33 36 29 29 29 22 18 12 11 7 3 6 15 25 13 15 20 20 29 31 14 6 5 5 8 4 7 3 13 21 15 12 14 16 25 38 45 18 31 42 44 45 40
29 28 34 37 34 26 32 9 20 29 25 5 3 5 7 10 6 2 10 16 18 11 11 9 11 14 10 5 8 16 40 46 53 34 46 45 54 59 68 75 76 47 37 45
25 28 28 32 33 29 31 8 5 19 27 6 5 5 1 4 8 5 4 12 10 12 7 11 9 14 17 5 9 5 18 29 43 51 60 58 63 60 57 51 39 47 65 52
29 23 26 27 33 29 39 24 14 23 10 7 3 7 3 3 3 3 4 5 8 12 8 7 7 5 10 10 30 54 59 64 64 46 47 62 69 68 66 64 66 68 64 52
22 20 20 24 37 26 40 33 30 20 5 10 6 7 6 8 3 1 1 7 4 6 6 7 5 3 9 27 37 54 56 48 73 84 72 57 52 58 57 56 56 53 53 50
26 32 24 14 16 28 45 33 18 10 15 12 8 8 5 13 5 5 2 7 4 4 7 5 1 7 60 49 53 53 53 52 57 60 57 66 58 47 52 51 50 45 41 36
37 23 12 26 57 29 15 12 9 12 7 16 14 27 8 16 5 6 6 5 4 2 8 4 3 6 8 64 62 59 56 53 48 45 43 43 46 53 56 55 52 51 48 46
37 29 36 38 10 7 9 7 2 7 11 19 18 15 15 12 13 6 6 4 1 10 2 5 6 5 51 71 82 83 74 68 61 52 52 50 48 51 47 44 44 44 45 41
53 27 11 8 4 6 13 13 7 2 19 22 19 7 12 9 10 6 6 6 9 5 3 7 7 26 61 74 86 96 89 81 71 63 55 53 52 45 45 47 41 41 39 39
12 12 9 9 5 8 8 9 10 12 20 39 33 15 7 8 6 4 6 7 5 3 2 10 5 32 59 75 86 93 99 92 82 73 66 59 54 51 43 39 38 35 31 28
10 12 9 8 9 2 11 16 20 18 42 45 20 14 7 5 4 5 2 4 8 10 9 5 29 36 57 83 91 95 91 88 83 72 65 57 49 43 37 35 33 27 19 15
8 6 6 4 8 8 15 27 39 41 36 20 10 6 6 7 7 7 14 7 10 7 6 22 50 53 64 85 91 93 87 79 73 63 54 48 40 34 30 25 23 20 17 15
7 4 13 11 14 19 19 37 32 35 31 4 7 8 17 2 2 5 8 10 8 9 33 51 78 76 83 94 98 89 87 78 68 56 44 37 29 24 17 17 20 19 20 20
Wind_Direction_500mb
337 340 351 353 180 212 182 214 222 305 162 120 225 204 217 177 150 109 114 241 211 254 304 250 238 276 138 351 333 312 192 214 256 239 243 242 165 179 152 125 260 231 154 272
329 336 358 347 207 175 196 228 204 281 181 165 215 140 284 219 130 170 176 224 208 131 271 293 249 347 190 334 306 274 274 229 309 256 62 9 185 222 149 119 74 216 147 261
306 334 358 344 233 192 191 177 207 211 187 201 248 195 220 158 133 215 230 251 164 170 251 234 291 312 52 355 272 279 251 276 225 226 207 129 199 214 194 140 131 212 232 287
307 331 310 235 253 202 192 202 227 189 167 200 196 155 108 196 182 202 221 215 204 182 288 204 229 227 256 197 270 251 273 252 252 267 253 192 217 191 193 202 200 193 263 240
292 300 317 221 234 190 199 191 161 157 123 117 183 184 198 227 157 166 218 217 168 205 221 224 264 183 225 281 188 268 71 294 342 281 19 167 260 220 206 216 261 274 278 285
275 284 326 201 200 192 201 182 184 197 165 172 162 206 193 183 188 216 257 221 250 228 243 276 280 247 272 289 323 209 214 324 5 270 330 304 304 221 182 191 219 162 185 226
261 267 294 208 196 202 172 195 193 195 236 206 203 189 149 129 227 229 185 191 188 278 305 302 287 268 266 258 291 192 204 107 219 277 348 352 245 214 170 186 228 218 274 246
229 250 263 212 205 197 191 212 200 190 205 236 279 221 156 157 278 235 210 164 246 297 330 328 317 338 24 322 237 198 88 144 276 282 240 290 4 232 155 170 282 203 224 239
235 260 252 104 198 210 208 246 235 193 119 252 242 160 165 186 271 179 161 322 314 43 323 333 82 288 226 332 73 279 185 162 172 339 312 231 239 252 184 153 332 227 198 201
220 228 240 23 159 202 206 205 203 201 189 279 188 187 157 145 162 192 137 102 44 43 318 18 138 291 154 344 227 177 179 197 213 220 277 284 251 204 161 69 237 294 220 223
216 226 231 246 301 175 192 208 208 212 224 260 261 249 181 222 241 151 176 134 288 61 36 119 279 122 244 341 213 187 186 169 201 125 190 285 157 125 148 229 289 312 290 225
228 217 231 238 224 199 185 179 210 215 228 254 259 223 243 256 253 251 213 203 150 197 110 324 35 323 45 222 280 169 226 200 202 200 223 234 199 236 265 278 276 290 311 289
234 232 224 224 221 217 219 219 241 174 228 258 254 266 264 251 247 241 229 231 224 211 213 229 240 240 147 231 239 224 228 182 230 338 263 250 261 271 274 273 273 278 281 287
239 257 258 212 216 240 240 234 202 178 168 193 234 249 192 221 232 233 230 234 229 225 229 222 224 187 191 245 266 230 213 152 212 258 279 281 282 277 304 297 287 293 281 269
242 247 244 236 223 215 242 253 241 210 193 250 259 272 283 296 268 231 220 228 237 206 167 218 237 247 284 259 257 253 184 211 202 233 256 254 277 304 308 307 310 308 297 280
245 245 230 222 231 209 204 258 247 228 214 238 12 307 329 354 288 159 208 208 211 194 194 214 228 227 216 272 258 244 222 229 236 256 279 279 282 284 284 289 293 295 303 287
223 225 224 220 218 226 181 207 178 165 176 202 331 312 297 21 76 89 172 214 206 205 232 231 236 208 197 238 243 266 313 305 299 290 286 284 287 286 300 293 281 291 299 292
218 241 228 209 197 229 204 195 165 148 153 126 96 274 178 148 120 153 186 174 207 220 247 253 219 229 223 263 252 274 291 305 304 307 306 295 299 294 293 291 285 285 286 280
230 198 195 201 204 205 197 181 168 169 173 163 185 159 250 136 101 82 181 210 225 227 216 244 176 194 233 244 286 301 308 311 304 308 310 310 293 291 295 296 297 292 294 279
203 178 175 194 194 169 170 165 185 207 204 204 197 202 229 159 184 186 214 182 234 240 246 166 106 259 251 310 316 314 318 323 321 325 331 325 317 314 308 303 305 307 309 307
186 169 170 153 130 136 153 146 165 184 193 201 221 199 171 188 122 209 214 208 206 281 266 132 239 265 331 349 346 347 340 335 330 323 321 320 316 311 306 304 297 292 291 291
169 159 142 140 137 114 140 172 174 148 212 181 170 190 178 172 186 130 199 203 26 247 122 73 269 251 348 357 358 359 354 346 342 336 327 324 323 314 312 313 307 297 288 288
130 136 155 174 148 70 162 185 253 147 168 173 166 144 148 145 176 177 181 227 235 147 153 222 225 323 355 359 358 356 353 348 345 341 336 329 324 323 323 319 317 310 300 279
128 141 140 162 243 239 185 182 185 168 177 166 155 123 145 138 165 194 168 231 81 2 215 236 232 338 353 1 358 352 350 347 345 342 340 338 335 334 334 331 327 319 309 295
114 141 177 200 206 142 169 138 134 151 157 150 116 86 122 161 213 218 96 352 245 208 224 225 322 332 351 353 354 349 345 343 339 340 339 338 339 343 345 350 349 348 346 341
121 151 98 113 96 155 160 158 143 151 153 121 110 111 90 248 179 184 219 150 223 243 209 311 344 341 337 345 346 343 340 338 333 333 335 337 339 343 344 357 2 18 32 46
155 168 187 153 152 170 165 163 152 156 158 157 117 132 209 95 148 255 188 202 234 297 325 327 325 328 328 331 333 335 334 333 329 324 331 332 336 344 343 5 31 44 60 69
Wind_Speed_850mb
14 16 18 14 12 6 11 6 2 4 12 5 1 3 4 4 6 3 2 2 2 2 4 6 6 4 1 19 13 7 2 4 7 8 6 5 2 11 9 8 10 6 6 15
17 14 12 14 7 12 11 6 4 3 10 4 5 3 3 3 4 4 7 5 7 1 4 6 4 3 6 3 3 4 1 4 7 2 3 5 2 7 6 8 6 11 9 13
13 14 7 7 6 23 17 7 2 6 5 4 2 6 4 4 4 1 4 2 1 2 4 7 6 3 2 6 4 7 1 4 8 9 8 8 4 6 9 10 7 6 14 17
13 15 5 5 6 22 21 13 6 6 4 6 7 4 2 2 4 6 7 5 7 6 5 4 6 6 5 3 4 4 1 6 4 12 15 9 12 12 17 19 13 12 9 10
16 15 9 10 8 18 28 10 6 5 6 3 7 5 6 4 3 7 5 6 5 11 9 8 6 2 6 1 6 4 2 4 4 11 2 6 11 17 20 21 6 22 29 43
19 14 12 12 10 21 14 14 12 6 11 7 5 6 7 10 2 7 4 7 2 8 9 10 17 16 12 9 2 3 2 3 5 11 4 6 14 16 23 10 8 14 11 20
20 13 10 14 13 13 9 14 12 10 7 6 8 4 5 3 3 3 4 3 5 3 13 20 13 12 11 5 8 10 3 3 2 8 12 5 11 5 9 12 13 30 16 11
12 12 7 8 17 12 12 13 9 5 1 2 8 9 5 1 9 4 3 2 5 13 8 5 5 4 8 5 3 3 2 4 6 2 4 17 3 7 13 14 13 21 30 14
8 6 4 1 13 17 12 14 12 7 8 9 7 4 7 4 3 4 3 5 8 4 2 2 3 2 5 4 3 2 5 2 3 1 1 9 12 8 14 7 8 6 21 13
20 10 3 1 2 10 23 18 16 10 5 3 4 2 4 8 3 1 4 2 4 2 1 3 1 6 3 2 4 6 4 3 8 4 6 17 13 8 15 10 12 6 18 26
35 22 14 4 1 1 10 30 20 17 11 11 10 6 5 4 6 4 5 2 0 3 2 2 4 2 4 2 5 8 11 10 6 4 2 15 14 10 9 10 8 16 14 29
25 43 21 15 6 2 3 7 15 16 15 10 9 12 12 16 16 10 10 4 5 10 2 2 2 4 2 5 6 5 6 10 6 17 13 13 24 29 25 24 28 20 20 16
26 21 32 29 17 10 5 4 2 8 10 23 31 28 27 41 38 31 12 7 8 10 10 2 3 6 5 5 10 5 8 16 8 3 12 27 54 54 65 71 72 59 47 40
28 30 31 33 24 18 14 7 4 9 5 2 3 2 5 6 11 21 35 38 19 11 7 7 4 4 13 6 8 8 12 21 10 14 36 52 60 46 29 27 27 30 41 41
32 33 36 29 29 29 22 18 12 11 7 3 6 15 25 13 15 20 20 29 31 14 6 5 5 8 4 7 3 13 21 15 12 14 16 25 38 45 18 31 42 44 45 40
29 28 34 37 34 26 32 9 20 29 25 5 3 5 7 10 6 2 10 16 18 11 11 9 11 14 10 5 8 16 40 46 53 34 46 45 54 59 68 75 76 47 37 45
25 28 28 32 33 29 31 8 5 19 27 6 5 5 1 4 8 5 4 12 10 12 7 11 9 14 17 5 9 5 18 29 43 51 60 58 63 60 57 51 39 47 65 52
29 23 26 27 33 29 39 24 14 23 10 7 3 7 3 3 3 3 4 5 8 12 8 7 7 5 10 10 30 54 59 64 64 46 47 62 69 68 66 64 66 68 64 52
22 20 20 24 37 26 40 33 30 20 5 10 6 7 6 8 3 1 1 7 4 6 6 7 5 3 9 27 37 54 56 48 73 84 72 57 52 58 57 56 56 53 53 50
26 32 24 14 16 28 45 33 18 10 15 12 8 8 5 13 5 5 2 7 4 4 7 5 1 7 60 49 53 53 53 52 57 60 57 66 58 47 52 51 50 45 41 36
37 23 12 26 57 29 15 12 9 12 7 16 14 27 8 16 5 6 6 5 4 2 8 4 3 6 8 64 62 59 56 53 48 45 43 43 46 53 56 55 52 51 48 46
37 29 36 38 10 7 9 7 2 7 11 19 18 15 15 12 13 6 6 4 1 10 2 5 6 5 51 71 82 83 74 68 61 52 52 50 48 51 47 44 44 44 45 41
53 27 11 8 4 6 13 13 7 2 19 22 19 7 12 9 10 6 6 6 9 5 3 7 7 26 61 74 86 96 89 81 71 63 55 53 52 45 45 47 41 41 39 39
12 12 9 9 5 8 8 9 10 12 20 39 33 15 7 8 6 4 6 7 5 3 2 10 5 32 59 75 86 93 99 92 82 73 66 59 54 51 43 39 38 35 31 28
10 12 9 8 9 2 11 16 20 18 42 45 20 14 7 5 4 5 2 4 8 10 9 5 29 36 57 83 91 95 91 88 83 72 65 57 49 43 37 35 33 27 19 15
8 6 6 4 8 8 15 27 39 41 36 20 10 6 6 7 7 7 14 7 10 7 6 22 50 53 64 85 91 93 87 79 73 63 54 48 40 34 30 25 23 20 17 15
7 4 13 11 14 19 19 37 32 35 31 4 7 8 17 2 2 5 8 10 8 9 33 51 78 76 83 94 98 89 87 78 68 56 44 37 29 24 17 17 20 19 20 20
Wind_Direction_850mb
337 340 351 353 180 212 182 214 222 305 162 120 225 204 217 177 150 109 114 241 211 254 304 250 238 276 138 351 333 312 192 214 256 239 243 242 165 179 152 125 260 231 154 272
329 336 358 347 207 175 196 228 204 281 181 165 215 140 284 219 130 170 176 224 208 131 271 293 249 347 190 334 306 274 274 229 309 256 62 9 185 222 149 119 74 216 147 261
306 334 358 344 233 192 191 177 207 211 187 201 248 195 220 158 133 215 230 251 164 170 251 234 291 312 52 355 272 279 251 276 225 226 207 129 199 214 194 140 131 212 232 287
307 331 310 235 253 202 192 202 227 189 167 200 196 155 108 196 182 202 221 215 204 182 288 204 229 227 256 197 270 251 273 252 252 267 253 192 217 191 193 202 200 193 263 240
292 300 317 221 234 190 199 191 161 157 123 117 183 184 198 227 157 166 218 217 168 205 221 224 264 183 225 281 188 268 71 294 342 281 19 167 260 220 206 216 261 274 278 285
275 284 326 201 200 192 201 182 184 197 165 172 162 206 193 183 188 216 257 221 250 228 243 276 280 247 272 289 323 209 214 324 5 270 330 304 304 221 182 191 219 162 185 226
261 267 294 208 196 202 172 195 193 195 236 206 203 189 149 129 227 229 185 191 188 278 305 302 287 268 266 258 291 192 204 107 219 277 348 352 245 214 170 186 228 218 274 246
229 250 263 212 205 197 191 212 200 190 205 236 279 221 156 157 278 235 210 164 246 297 330 328 317 338 24 322 237 198 88 144 276 282 240 290 4 232 155 170 282 203 224 239
235 260 252 104 198 210 208 246 235 193 119 252 242 160 165 186 271 179 161 322 314 43 323 333 82 288 226 332 73 279 185 162 172 339 312 231 239 252 184 153 332 227 198 201
220 228 240 23 159 202 206 205 203 201 189 279 188 187 157 145 162 192 137 102 44 43 318 18 138 291 154 344 227 177 179 197 213 220 277 284 251 204 161 69 237 294 220 223
216 226 231 246 301 175 192 208 208 212 224 260 261 249 181 222 241 151 176 134 288 61 36 119 279 122 244 341 213 187 186 169 201 125 190 285 157 125 148 229 289 312 290 225
228 217 231 238 224 199 185 179 210 215 228 254 259 223 243 256 253 251 213 203 150 197 110 324 35 323 45 222 280 169 226 200 202 200 223 234 199 236 265 278 276 290 311 289
234 232 224 224 221 217 219 219 241 174 228 258 254 266 264 251 247 241 229 231 224 211 213 229 240 240 147 231 239 224 228 182 230 338 263 250 261 271 274 273 273 278 281 287
239 257 258 212 216 240 240 234 202 178 168 193 234 249 192 221 232 233 230 234 229 225 229 222 224 187 191 245 266 230 213 152 212 258 279 281 282 277 304 297 287 293 281 269
242 247 244 236 223 215 242 253 241 210 193 250 259 272 283 296 268 231 220 228 237 206 167 218 237 247 284 259 257 253 184 211 202 233 256 254 277 304 308 307 310 308 297 280
245 245 230 222 231 209 204 258 247 228 214 238 12 307 329 354 288 159 208 208 211 194 194 214 228 227 216 272 258 244 222 229 236 256 279 279 282 284 284 289 293 295 303 287
223 225 224 220 218 226 181 207 178 165 176 202 331 312 297 21 76 89 172 214 206 205 232 231 236 208 197 238 243 266 313 305 299 290 286 284 287 286 300 293 281 291 299 292
218 241 228 209 197 229 204 195 165 148 153 126 96 274 178 148 120 153 186 174 207 220 247 253 219 229 223 263 252 274 291 305 304 307 306 295 299 294 293 291 285 285 286 280
230 198 195 201 204 205 197 181 168 169 173 163 185 159 250 136 101 82 181 210 225 227 216 244 176 194 233 244 286 301 308 311 304 308 310 310 293 291 295 296 297 292 294 279
203 178 175 194 194 169 170 165 185 207 204 204 197 202 229 159 184 186 214 182 234 240 246 166 106 259 251 310 316 314 318 323 321 325 331 325 317 314 308 303 305 307 309 307
186 169 170 153 130 136 153 146 165 184 193 201 221 199 171 188 122 209 214 208 206 281 266 132 239 265 331 349 346 347 340 335 330 323 321 320 316 311 306 304 297 292 291 291
169 159 142 140 137 114 140 172 174 148 212 181 170 190 178 172 186 130 199 203 26 247 122 73 269 251 348 357 358 359 354 346 342 336 327 324 323 314 312 313 307 297 288 288
130 136 155 174 148 70 162 185 253 147 168 173 166 144 148 145 176 177 181 227 235 147 153 222 225 323 355 359 358 356 353 348 345 341 336 329 324 323 323 319 317 310 300 279
128 141 140 162 243 239 185 182 185 168 177 166 155 123 145 138 165 194 168 231 81 2 215 236 232 338 353 1 358 352 350 347 345 342 340 338 335 334 334 331 327 319 309 295
114 141 177 200 206 142 169 138 134 151 157 150 116 86 122 161 213 218 96 352 245 208 224 225 322 332 351 353 354 349 345 343 339 340 339 338 339 343 345 350 349 348 346 341
121 151 98 113 96 155 160 158 143 151 153 121 110 111 90 248 179 184 219 150 223 243 209 311 344 341 337 345 346 343 340 338 333 333 335 337 339 343 344 357 2 18 32 46
155 168 187 153 152 170 165 163 152 156 158 157 117 132 209 95 148 255 188 202 234 297 325 327 325 328 328 331 333 335 334 333 329 324 331 332 336 344 343 5 31 44 60 69